星链-4424 (STARLINK-4424 )

导读 | 星芒AI

STARLINK-4424 是 SpaceX Starlink 项目中的一颗低轨通信卫星,属于第 44 批部署的星链卫星群。该卫星用于提供全球宽带互联网服务,尤其服务于网络基础设施薄弱的地区。它运行在约 550 公里的近地轨道,采用先进通信技术,支持高速、低延迟数据传输。STARLINK-4424 与数千颗其他星链卫星共同构建了一个高效的卫星互联网网络,推动全球数字连接的发展。

基本信息
目录编号:
53681
目录名称:
STARLINK-4424
国际标识:
2022-105AK
轨道中心:
EARTH
卫星名称:
星链-4424
卫星全名:
星链-4424 (STARLINK-4424 )
卫星状态:
在轨 (已飞行1166 天)
发射日期:
2022-08-31 UTC
国别 :
美国 (US)
星等 :
--
轨道信息
数据来源 国际轨道数据
星历时间: 2025-11-08T22:51:28+0800
1天前
查看轨道信息
半长轴: 6941.138km
偏心率: 0.0002275
轨道倾角: 97.601°
近地点辐角 90.509°
升交点赤经 191.704°
平近点角 269.640°
近地点: 561.423km
远地点: 564.583km
周期: 95.919分钟
每日圈数: 15.012631
详细信息
固有亮度:
5
最大亮度:
2.5
卫星平台:
Starlink v1.5
覆盖范围:
全球
运营商:
太空探索技术公司
运营商所在国:
美国
制造商(研发单位):
太空探索技术公司
制造商所在国:
美国
使用方式:
暂无
卫星简介
星链(Starlink)计划是由太空探索技术公司(SpaceX)提出的一个巨型低轨卫星互联网星座项目,计划在2019年至2024年间在太空搭建由约1.2万颗卫星组成的“星链”网络,其中1584颗将部署在地球上空550千米处的近地轨道,并从2020年开始工作。该卫星仍在工作。
2D轨道图
3D轨道图
轨道高度分析图
轨道倾角分析图
轨道综合分析图
查看轨道综合分析图